Meteo Giornale » Osservazioni meteo Gran Bretagna » Swinderby Raf

ore: 15:50 - Osservazioni Meteo Swinderby Raf
Lat. 53° 9' N Lon. 0° 41' W Alt. 22 metri s.l.m.

sereno

21 °C

Sereno

Temp. 24 Ore

11 °C

21 °C

Sud-Ovest

25.9 Km/h

Dew point 11 °C

Umidità 52 %

Visibilità  10 Km

Il sole sorge alle ore 06:12

Il sole tramonta alle ore 19:52

Data e Ora Cielo e Fenomeni T °C DP °C Um. % Pres. hPa Vis. km Vento km/h
Oggi h: 15:50 sereno Sereno 21 11 52 1017 10 SO 25.9
Oggi h: 15:20 sereno Sereno 21 10 49 1017 10 SO 22.2
Oggi h: 14:50 sereno Sereno 21 11 52 1017 10 SO 22.2
Oggi h: 14:20 poco_nuvoloso Poco Nuvoloso 21 9 46 1017 10 SO 25.9
Oggi h: 13:50 nuvoloso Nuvoloso 21 9 46 1017 10 SO 22.2
Oggi h: 13:20 poco_nuvoloso Poco Nuvoloso 21 10 49 1017 10 SO 24
Oggi h: 12:50 poco_nuvoloso Poco Nuvoloso 20 9 49 1017 10 SO 24
Oggi h: 12:20 poco_nuvoloso Poco Nuvoloso 20 11 56 1017 10 SO 25.9
Oggi h: 11:50 nuvoloso Nuvoloso 19 10 55 1017 10 SO 22.2
Oggi h: 11:20 nuvoloso Nuvoloso 19 11 59 1017 10 SO 22.2
Oggi h: 10:50 sereno Sereno 18 11 63 1018 10 SO 22.2
Oggi h: 10:20 sereno Sereno 18 11 63 1018 10 SO 22.2
Oggi h: 09:50 sereno Sereno 17 12 72 1018 10 SO 20.3
Oggi h: 09:20 sereno Sereno 16 11 72 1018 10 SO 20.3
Oggi h: 08:50 poco_nuvoloso Poco Nuvoloso 15 12 82 1018 10 SO 20.3
Oggi h: 08:20 molto_nuvoloso Molto Nuvoloso 14 12 87 1018 10 SO 16.7
Oggi h: 07:50 coperto Coperto 14 12 87 1018 10 SO 16.7
Oggi h: 07:20 coperto Coperto 13 12 93 1017 10 SO 16.7
Oggi h: 06:50 poco_nuvoloso Poco Nuvoloso 12 11 93 1017 10 S/SO 14.8
Oggi h: 06:20 sereno Sereno 11 11 100 1017 10 S/SO 11.1
Oggi h: 05:50 sereno Sereno 11 11 100 1017 10 S/SO 9.3
Oggi h: 05:20 sereno Sereno 11 11 100 1017 10 S/SO 9.3
Oggi h: 04:50 sereno Sereno 12 11 93 1017 10 S/SO 13
Oggi h: 04:20 sereno Sereno 12 11 93 1017 10 SO 11.1
Oggi h: 03:50 sereno Sereno 12 11 93 1017 10 S/SO 13
Oggi h: 03:20 sereno Sereno 12 11 93 1017 10 SO 11.1
Oggi h: 02:50 poco_nuvoloso Poco Nuvoloso 13 11 87 1017 10 SO 14.8
Oggi h: 02:20 molto_nuvoloso Molto Nuvoloso 13 11 87 1016 10 SO 11.1
Oggi h: 01:50 coperto Coperto 13 11 87 1016 10 S/SO 7.4
Oggi h: 01:20 molto_nuvoloso Molto Nuvoloso 13 11 87 1016 10 SO 11.1
Oggi h: 00:50 nuvoloso Nuvoloso 14 11 82 1016 10 O/SO 9.3
Oggi h: 00:20 poco_nuvoloso Poco Nuvoloso 14 11 82 1016 10 O/SO 9.3
Ieri h: 23:50 poco_nuvoloso Poco Nuvoloso 14 11 82 1016 10 O/SO 11.1
Ieri h: 23:20 coperto Coperto 14 11 82 1016 10 O/SO 13
Ieri h: 22:50 sereno Sereno 14 11 82 1016 10 O 11.1
Ieri h: 22:20 sereno Sereno 15 11 76 1015 10 O 11.1
Ieri h: 21:50 sereno Sereno 15 11 76 1015 10 O/SO 13
Ieri h: 21:20 molto_nuvoloso Molto Nuvoloso 15 11 76 1015 10 O/SO 13
Ieri h: 20:50 sereno Sereno 16 11 72 1015 10 O 13
Ieri h: 20:20 sereno Sereno 16 12 77 1014 10 O/SO 13
Ieri h: 19:50 coperto_pioggia Pioviggine 17 12 72 1013 10 O 16.7
Ieri h: 19:20 coperto_pioggia Pioggia 18 12 67 1013 10 O 20.3
Ieri h: 18:50 sereno Sereno 19 13 68 1012 10 O 18.5
Ieri h: 18:20 poco_nuvoloso Poco Nuvoloso 19 14 72 1012 10 O 18.5
Ieri h: 17:50 coperto Coperto 19 16 82 1012 10 O 7.4
Ieri h: 17:20 coperto Coperto 17 16 93 1011 10 O 9.3
Ieri h: 16:50 coperto_pioggia Pioggia 17 15 88 1011 5 O 14.8